(°C)
13°
15°
17°
19°
21°
23°
24°
(°C)
11°
13°
15°
17°
19°
21°
22°
ΝΝΔ
ΑΒΑ
ΝΝΑ
ΝΑ
ΝΝΑ
ΝΝΑ
ΝΝΑ
(χλμ / ω)
3-7
4-8
6-9
6-10
8-12
8-13
9-17
(χιλιοστά)
0
0
0
0
0
0
0
(%)
0
0
0
0
0
0
0

Ανύψωση ήλιου

/ 22.8°
sun-icon
UV 6
05:13
20:44
Πανσέληνος (185°)
21:34
05:17

METAR για 50.1°Β 14.27°Α (LKPR)

Χρόνος Συνθήκες Θερμοκρασία/
Σημείο δρόσου
Άνεμος Ορατότητα Καιρός Νέφη Πίεση Αλλαγή Ανεπεξέργαστο
VFR 13°C / 7°C variable 1kt >10km - Clouds and Visibility OK 1019 No Significant change LKPR 160530Z VRB01KT CAVOK 13/07 Q1019 NOSIG
VFR 11°C / 7°C variable 2kt >10km - Clouds and Visibility OK 1019 No Significant change LKPR 160500Z VRB02KT CAVOK 11/07 Q1019 NOSIG
VFR 10°C / 6°C variable 2kt >10km - Clouds and Visibility OK 1019 No Significant change LKPR 160430Z VRB02KT CAVOK 10/06 Q1019 NOSIG
VFR 9°C / 6°C variable 2kt >10km - Clouds and Visibility OK 1019 No Significant change LKPR 160400Z VRB02KT CAVOK 09/06 Q1019 NOSIG
VFR 8°C / 5°C variable 2kt >10km - Clouds and Visibility OK 1019 No Significant change LKPR 160330Z VRB02KT CAVOK 08/05 Q1019 NOSIG
VFR 8°C / 5°C variable 2kt >10km - Clouds and Visibility OK 1019 No Significant change LKPR 160300Z VRB02KT CAVOK 08/05 Q1019 NOSIG
VFR 8°C / 5°C variable 2kt >10km - Clouds and Visibility OK 1019 No Significant change LKPR 160230Z VRB02KT CAVOK 08/05 Q1019 NOSIG
VFR 10°C / 5°C 40º 4kt >10km - Clouds and Visibility OK 1019 No Significant change LKPR 160200Z 04004KT CAVOK 10/05 Q1019 NOSIG
VFR 9°C / 5°C 330º 5kt >10km - Clouds and Visibility OK 1020 No Significant change LKPR 160130Z 33005KT CAVOK 09/05 Q1020 NOSIG
VFR 9°C / 5°C 10º 3kt >10km - Clouds and Visibility OK 1020 No Significant change LKPR 160100Z 01003KT CAVOK 09/05 Q1020 NOSIG
VFR 10°C / 5°C variable 2kt >10km - Clouds and Visibility OK 1020 No Significant change LKPR 160030Z VRB02KT CAVOK 10/05 Q1020 NOSIG
VFR 13°C / 5°C 80º 3kt >10km - Clouds and Visibility OK 1019 No Significant change LKPR 160000Z 08003KT CAVOK 13/05 Q1019 NOSIG
VFR 13°C / 5°C 70º 3kt >10km - Clouds and Visibility OK 1019 No Significant change LKPR 152330Z 07003KT CAVOK 13/05 Q1019 NOSIG
VFR 13°C / 6°C 70º 3kt >10km - Clouds and Visibility OK 1020 No Significant change LKPR 152300Z 07003KT CAVOK 13/06 Q1020 NOSIG
VFR 13°C / 6°C 90º 4kt >10km - Clouds and Visibility OK 1019 No Significant change LKPR 152230Z 09004KT CAVOK 13/06 Q1019 NOSIG
VFR 13°C / 6°C 90º 4kt >10km - Clouds and Visibility OK 1020 No Significant change LKPR 152200Z 09004KT CAVOK 13/06 Q1020 NOSIG
VFR 13°C / 6°C 80º 4kt >10km - Clouds and Visibility OK 1020 No Significant change LKPR 152130Z 08004KT CAVOK 13/06 Q1020 NOSIG
VFR 15°C / 6°C 100º 5kt >10km - Clouds and Visibility OK 1020 No Significant change LKPR 152100Z 10005KT CAVOK 15/06 Q1020 NOSIG
VFR 16°C / 6°C 70º 5kt >10km - Clouds and Visibility OK 1020 No Significant change LKPR 152030Z 07005KT CAVOK 16/06 Q1020 NOSIG
VFR 18°C / 5°C 50º variable 020º to 090º 4kt >10km - Clouds and Visibility OK 1019 No Significant change LKPR 152000Z 05004KT 020V090 CAVOK 18/05 Q1019 NOSIG
VFR 16°C / 6°C 60º 5kt >10km - Clouds and Visibility OK 1019 No Significant change LKPR 151930Z 06005KT CAVOK 16/06 Q1019 NOSIG
VFR 17°C / 6°C 60º 4kt >10km - Clouds and Visibility OK 1019 No Significant change LKPR 151900Z 06004KT CAVOK 17/06 Q1019 NOSIG
VFR 19°C / 6°C 60º variable 030º to 090º 4kt >10km - Clouds and Visibility OK 1019 No Significant change LKPR 151830Z 06004KT 030V090 CAVOK 19/06 Q1019 NOSIG
VFR 20°C / 6°C 60º variable 030º to 100º 4kt >10km - Clouds and Visibility OK 1019 No Significant change LKPR 151800Z 06004KT 030V100 CAVOK 20/06 Q1019 NOSIG

VFR

13°C / 7°C

[Περισσότερο]
Άνεμος variable 1kt
Ορατότητα >10km
Καιρός -
Νέφη Clouds and Visibility OK
Πίεση 1019
Αλλαγή No Significant change
Ανεπεξέργαστο LKPR 160530Z VRB01KT CAVOK 13/07 Q1019 NOSIG

VFR

11°C / 7°C

[Περισσότερο]
Άνεμος variable 2kt
Ορατότητα >10km
Καιρός -
Νέφη Clouds and Visibility OK
Πίεση 1019
Αλλαγή No Significant change
Ανεπεξέργαστο LKPR 160500Z VRB02KT CAVOK 11/07 Q1019 NOSIG

VFR

10°C / 6°C

[Περισσότερο]
Άνεμος variable 2kt
Ορατότητα >10km
Καιρός -
Νέφη Clouds and Visibility OK
Πίεση 1019
Αλλαγή No Significant change
Ανεπεξέργαστο LKPR 160430Z VRB02KT CAVOK 10/06 Q1019 NOSIG

VFR

9°C / 6°C

[Περισσότερο]
Άνεμος variable 2kt
Ορατότητα >10km
Καιρός -
Νέφη Clouds and Visibility OK
Πίεση 1019
Αλλαγή No Significant change
Ανεπεξέργαστο LKPR 160400Z VRB02KT CAVOK 09/06 Q1019 NOSIG

VFR

8°C / 5°C

[Περισσότερο]
Άνεμος variable 2kt
Ορατότητα >10km
Καιρός -
Νέφη Clouds and Visibility OK
Πίεση 1019
Αλλαγή No Significant change
Ανεπεξέργαστο LKPR 160330Z VRB02KT CAVOK 08/05 Q1019 NOSIG

VFR

8°C / 5°C

[Περισσότερο]
Άνεμος variable 2kt
Ορατότητα >10km
Καιρός -
Νέφη Clouds and Visibility OK
Πίεση 1019
Αλλαγή No Significant change
Ανεπεξέργαστο LKPR 160300Z VRB02KT CAVOK 08/05 Q1019 NOSIG

VFR

8°C / 5°C

[Περισσότερο]
Άνεμος variable 2kt
Ορατότητα >10km
Καιρός -
Νέφη Clouds and Visibility OK
Πίεση 1019
Αλλαγή No Significant change
Ανεπεξέργαστο LKPR 160230Z VRB02KT CAVOK 08/05 Q1019 NOSIG

VFR

10°C / 5°C

[Περισσότερο]
Άνεμος 40º 4kt
Ορατότητα >10km
Καιρός -
Νέφη Clouds and Visibility OK
Πίεση 1019
Αλλαγή No Significant change
Ανεπεξέργαστο LKPR 160200Z 04004KT CAVOK 10/05 Q1019 NOSIG

VFR

9°C / 5°C

[Περισσότερο]
Άνεμος 330º 5kt
Ορατότητα >10km
Καιρός -
Νέφη Clouds and Visibility OK
Πίεση 1020
Αλλαγή No Significant change
Ανεπεξέργαστο LKPR 160130Z 33005KT CAVOK 09/05 Q1020 NOSIG

VFR

9°C / 5°C

[Περισσότερο]
Άνεμος 10º 3kt
Ορατότητα >10km
Καιρός -
Νέφη Clouds and Visibility OK
Πίεση 1020
Αλλαγή No Significant change
Ανεπεξέργαστο LKPR 160100Z 01003KT CAVOK 09/05 Q1020 NOSIG

VFR

10°C / 5°C

[Περισσότερο]
Άνεμος variable 2kt
Ορατότητα >10km
Καιρός -
Νέφη Clouds and Visibility OK
Πίεση 1020
Αλλαγή No Significant change
Ανεπεξέργαστο LKPR 160030Z VRB02KT CAVOK 10/05 Q1020 NOSIG

VFR

13°C / 5°C

[Περισσότερο]
Άνεμος 80º 3kt
Ορατότητα >10km
Καιρός -
Νέφη Clouds and Visibility OK
Πίεση 1019
Αλλαγή No Significant change
Ανεπεξέργαστο LKPR 160000Z 08003KT CAVOK 13/05 Q1019 NOSIG

VFR

13°C / 5°C

[Περισσότερο]
Άνεμος 70º 3kt
Ορατότητα >10km
Καιρός -
Νέφη Clouds and Visibility OK
Πίεση 1019
Αλλαγή No Significant change
Ανεπεξέργαστο LKPR 152330Z 07003KT CAVOK 13/05 Q1019 NOSIG

VFR

13°C / 6°C

[Περισσότερο]
Άνεμος 70º 3kt
Ορατότητα >10km
Καιρός -
Νέφη Clouds and Visibility OK
Πίεση 1020
Αλλαγή No Significant change
Ανεπεξέργαστο LKPR 152300Z 07003KT CAVOK 13/06 Q1020 NOSIG

VFR

13°C / 6°C

[Περισσότερο]
Άνεμος 90º 4kt
Ορατότητα >10km
Καιρός -
Νέφη Clouds and Visibility OK
Πίεση 1019
Αλλαγή No Significant change
Ανεπεξέργαστο LKPR 152230Z 09004KT CAVOK 13/06 Q1019 NOSIG

VFR

13°C / 6°C

[Περισσότερο]
Άνεμος 90º 4kt
Ορατότητα >10km
Καιρός -
Νέφη Clouds and Visibility OK
Πίεση 1020
Αλλαγή No Significant change
Ανεπεξέργαστο LKPR 152200Z 09004KT CAVOK 13/06 Q1020 NOSIG

VFR

13°C / 6°C

[Περισσότερο]
Άνεμος 80º 4kt
Ορατότητα >10km
Καιρός -
Νέφη Clouds and Visibility OK
Πίεση 1020
Αλλαγή No Significant change
Ανεπεξέργαστο LKPR 152130Z 08004KT CAVOK 13/06 Q1020 NOSIG

VFR

15°C / 6°C

[Περισσότερο]
Άνεμος 100º 5kt
Ορατότητα >10km
Καιρός -
Νέφη Clouds and Visibility OK
Πίεση 1020
Αλλαγή No Significant change
Ανεπεξέργαστο LKPR 152100Z 10005KT CAVOK 15/06 Q1020 NOSIG

VFR

16°C / 6°C

[Περισσότερο]
Άνεμος 70º 5kt
Ορατότητα >10km
Καιρός -
Νέφη Clouds and Visibility OK
Πίεση 1020
Αλλαγή No Significant change
Ανεπεξέργαστο LKPR 152030Z 07005KT CAVOK 16/06 Q1020 NOSIG

VFR

18°C / 5°C

[Περισσότερο]
Άνεμος 50º variable 020º to 090º 4kt
Ορατότητα >10km
Καιρός -
Νέφη Clouds and Visibility OK
Πίεση 1019
Αλλαγή No Significant change
Ανεπεξέργαστο LKPR 152000Z 05004KT 020V090 CAVOK 18/05 Q1019 NOSIG

VFR

16°C / 6°C

[Περισσότερο]
Άνεμος 60º 5kt
Ορατότητα >10km
Καιρός -
Νέφη Clouds and Visibility OK
Πίεση 1019
Αλλαγή No Significant change
Ανεπεξέργαστο LKPR 151930Z 06005KT CAVOK 16/06 Q1019 NOSIG

VFR

17°C / 6°C

[Περισσότερο]
Άνεμος 60º 4kt
Ορατότητα >10km
Καιρός -
Νέφη Clouds and Visibility OK
Πίεση 1019
Αλλαγή No Significant change
Ανεπεξέργαστο LKPR 151900Z 06004KT CAVOK 17/06 Q1019 NOSIG

VFR

19°C / 6°C

[Περισσότερο]
Άνεμος 60º variable 030º to 090º 4kt
Ορατότητα >10km
Καιρός -
Νέφη Clouds and Visibility OK
Πίεση 1019
Αλλαγή No Significant change
Ανεπεξέργαστο LKPR 151830Z 06004KT 030V090 CAVOK 19/06 Q1019 NOSIG

VFR

20°C / 6°C

[Περισσότερο]
Άνεμος 60º variable 030º to 100º 4kt
Ορατότητα >10km
Καιρός -
Νέφη Clouds and Visibility OK
Πίεση 1019
Αλλαγή No Significant change
Ανεπεξέργαστο LKPR 151800Z 06004KT 030V100 CAVOK 20/06 Q1019 NOSIG

TAF για 50.1°Β 14.27°Α (LKPR)

From till


From till Wind variable 2kt. Visibility 10km or more. Nil Significant Cloud.
Becoming from till Wind 150º 6kt. Visibility 10km or more. Nil Significant Cloud.
Becoming from till Wind 220º 10kt. Visibility 10km or more. Nil Significant Cloud.
With 40% probability, Temporarly from till Wind 290º 16kt. Gust 26kt. Visibility 3000m. Thunderstorm Rain . Scattered Clouds 3000ft.
Temporarly from till Visibility 7000m. Showers Rain . Scattered Clouds 4000ft.

Ανεπεξέργαστο: TAF LKPR 160500Z 1606/1712 VRB02KT CAVOK BECMG 1606/1608 15006KT BECMG 1615/1617 22010KT TEMPO 1617/1705 7000 SHRA SCT040CB PROB40 TEMPO 1617/1704 29016G26KT 3000 TSRA SCT030CB

Ραντάρ και πρόγνωση υετού μικρής διάρκειας για 50.1°Β 14.27°Α

Ψιλοβρέχει
Φως
Μέτρια
Βαριά
Πολύ βαρύ
Χαλάζι

Ο δείκτης θέσης τοποθετείται στο 50.1°Β 14.27°Α. Αυτή η κινούμενη εικόνα δείχνει την ραντάρ βροχόπτωσης για την τελευταία ώρα, καθώς και 1πρόγνωση h. Το ψιλόβροχο ή το ελαφρύ χιόνι μπορεί να είναι αόρατο για το ραντάρ. Η ένταση της βροχόπτωσης είναι χρωματικά κωδικοποιημένη και κυμαίνεται από γαλάζιο έως πορτοκαλί.

Τρέχουσες εικόνες δορυφόρου και βροχής για 50.1°Β 14.27°Α

Η ένδειξη τοποθεσίας τοποθετείται στο 50.1°Β 14.27°Α. [Περισσότερο]

Οι δορυφορικές εικόνες σε πραγματικό χρόνο συνδυάζουν ορατό φως κατά τη διάρκεια της ημέρας με υπέρυθρη ακτινοβολία κατά τη διάρκεια της νύχτας. Κατά τη διάρκεια της νύχτας, η εικόνα δεν είναι σκοτεινή μιας και η υπέρυθρη ακτινοβολία μπορεί να εντοπίσει τις διαφορές στη θερμοκρασία. Δυστυχώς, είναι δύσκολο να ξεχωρίσουν οι χαμηλές νεφώσεις και η ομίχλη από τις θερμοκρασίες εδάφους και έτσι μπορεί να είναι σχετικά αόρατα κατά τη διάρκεια της νύχτας. Οι εικόνες από τον δορυφόρο Meteosat για την Ευρώπη ενημερώνονται σε πραγματικό χρόνο κάθε 5 λεπτά. Οι εικόνες από τους δορυφόρους GOES-16/GOES-17 (Βόρεια & Λατινική Αμερική) και Himawari (Ασία) ενημερώνονται κάθε 10 λεπτά.

Ο υετός υπολογίζεται από ραντάρ και δορυφόρους. Η εκτιμήση του υετού από δορυφόρους τη νύχτα είναι λιγότερο ακριβής από ό,τι την ημέρα. Με πορτοκαλί σταυροούς οι θέσεις όπου αστραπές εντοπίζονται (για Ευρώπη).

Πνευματική ιδιοκτησία 2022 EUMETSAT / meteoblue. Δεδομένα αστραπών παρεχόμενα από nowcast.

Επιστροφή στην κορυφή